2024-013C

Last updated on Fri Jan 19 2024 00:02:04 GMT+0000 (Coordinated Universal Time)

1 58813U 24013C 24018.11402078 -.00002294 72670-5 00000+0 0 9997 2 58813 41.8298 285.9373 0234014 181.6233 328.2070 15.73710950 93
UTC large
Height (km)
Speed (km/s)
/
Latitude / Longitude
Inclination (degrees)
Orbital Period (minutes)
Azimuth
Elevation
Range (km)
Doppler Factor

Next 0 passes for location: London (51.5072 / 0.1276)

Sorry there are no passes over London.